{"data":{"norad_id":46076,"epoch":"2026-05-25T03:49:42.298176Z","epoch_age_seconds":74974,"freshness":"FRESH","line1":"1 46076U 20055BB  26145.15951734 -.00000010  00000+0  11426-4 0  9997","line2":"2 46076  53.1600 105.6203 0001098  92.2000 267.9127 15.31703606320931","mean_motion":15.31703606,"eccentricity":0.0001098,"inclination_deg":53.16,"raan_deg":105.6203,"arg_perigee_deg":92.2,"mean_anomaly_deg":267.9127,"bstar":1.1426e-5,"rev_number":32093,"period_min":94.012966631352,"perigee_km":469.97724043457,"apogee_km":471.48125146218,"semimajor_km":6848.8662459484,"source":"CELESTRAK","updated_at":"2026-05-25T13:38:16.464530Z"}}